Powrót do katalogu

STARLINK-35459

AktywnyŁącznośćVLEO
NORAD 65856·PAYLOAD·🇺🇸 United States

Wystrzelony Oct 3, 2025 z Vandenberg Space Force Base

Loading…

Następne Przeloty (najbliższe 24 godziny)

TLE

ŚwieżeSource: CelesTrak SupGP

Epoka: Sep 14, 2026, 14:04 UTC

1 65856C 25223C   26257.58659722  .00050858  00000+0  15027-2 0  2579
2 65856  53.1563 133.0363 0001267  95.6894 109.1830 15.34363943    15

Śledź STARLINK-35459 w czasie rzeczywistym z AllMySat

Download on the App Store